Dewpoint
6 5 7 7 3 3 4 5 6 7 7 7 6 10 12 11 12 12 14 15 16 16 14 17 17 19 18 18 20 21 24 27 24 29 26 38 44 47 48 47 45 53 52 52 54 56 59 63 62 65 66 70 71 71 72 72 71 71 70 70 69 71 71 70 69 68 68 68 68 69 69 69 71 70 71 71 71 71 74 70 69 70 72 71 72 72
5 7 6 2 2 3 4 5 5 6 6 5 7 9 12 11 9 13 14 18 17 15 16 17 17 18 17 19 20 21 27 28 29 29 36 42 44 46 48 45 45 47 48 54 58 55 58 60 63 67 68 70 71 71 71 72 71 71 71 71 70 71 71 71 71 70 70 69 68 69 68 69 69 70 69 69 70 71 71 74 75 73 72 71 73 75
11 6 5 4 2 4 5 4 4 6 6 4 8 9 7 9 9 14 15 18 18 15 15 16 15 16 17 20 20 25 30 32 33 32 37 48 49 45 43 46 50 50 51 52 55 54 54 57 60 63 68 70 71 71 71 72 72 72 71 71 71 71 71 71 71 71 70 72 72 71 71 70 71 72 72 70 72 72 72 74 71 71 71 71 70 71
11 6 7 6 4 3 5 5 3 6 7 8 7 7 6 6 9 13 16 18 18 14 15 18 15 15 18 23 27 29 31 33 33 36 37 42 42 41 42 47 50 53 58 59 63 62 56 60 64 65 69 72 71 71 72 72 72 72 71 72 72 72 72 72 72 72 73 73 73 74 73 73 72 71 74 74 73 72 71 69 66 66 67 68 70 70
6 8 8 7 6 4 4 4 4 8 9 8 6 5 4 6 9 12 15 17 17 15 14 18 15 20 18 21 27 31 32 33 33 37 38 38 40 44 45 46 49 58 60 61 62 64 63 63 64 68 70 71 70 71 71 72 72 71 71 72 70 71 72 72 72 72 73 73 72 74 74 73 74 73 73 71 68 68 67 66 67 67 67 69 69 70
9 9 9 8 7 5 6 3 5 8 8 5 5 5 6 8 10 12 15 17 16 15 14 14 16 23 26 27 28 29 30 31 36 36 36 38 43 45 46 49 47 48 56 61 62 62 65 65 68 69 70 69 69 70 71 71 70 70 71 65 66 68 69 69 69 70 71 72 71 73 72 70 71 70 67 64 65 65 66 67 67 68 69 69 68 70
12 11 10 7 3 5 4 5 8 8 5 6 6 7 6 7 10 13 15 17 18 19 18 14 15 27 28 26 27 30 29 30 34 37 38 41 45 46 46 47 47 52 54 56 58 60 63 65 66 67 66 67 68 69 70 71 69 68 66 66 65 66 68 69 68 69 69 69 71 70 69 68 66 64 64 65 67 67 68 68 67 68 69 68 68 68
14 13 11 8 8 6 6 8 8 7 5 5 8 11 8 7 10 13 16 17 17 19 22 17 15 17 23 30 29 33 32 32 38 37 39 40 44 47 47 48 51 53 57 60 62 63 64 65 66 65 66 66 67 68 71 70 68 66 65 65 65 66 68 68 67 69 68 68 68 66 66 66 65 64 64 65 66 67 67 67 67 67 69 69 67 67
15 12 10 9 10 9 8 8 7 6 5 8 12 10 13 14 13 13 15 16 17 17 37 20 17 18 27 24 29 29 28 31 34 36 38 42 45 46 47 49 53 56 58 61 62 63 64 65 65 65 67 66 68 68 69 69 66 66 65 65 66 66 67 68 68 67 67 67 67 69 68 66 65 65 64 65 66 66 68 66 66 67 68 70 68 66
15 14 9 9 10 9 10 9 8 8 8 11 12 12 12 15 15 14 14 14 16 21 24 17 15 15 34 23 29 27 27 30 33 35 37 41 43 43 44 50 52 54 59 60 62 62 63 64 65 66 67 66 66 68 68 68 66 66 66 65 65 65 67 68 67 67 67 67 67 66 67 66 66 66 65 65 65 65 67 66 66 66 67 69 68 68
13 18 17 10 11 10 8 10 10 10 11 12 13 11 6 12 15 16 16 17 18 20 17 15 14 13 34 25 38 44 28 30 33 35 36 37 39 40 44 47 50 54 57 59 60 60 63 64 65 66 67 68 69 69 69 68 66 66 67 66 65 66 67 67 67 67 67 67 67 67 66 65 65 66 66 65 65 66 67 66 66 66 67 69 69 71
15 12 11 12 13 11 10 9 12 10 7 12 13 14 13 16 16 18 17 17 21 15 14 13 13 13 25 33 27 29 28 30 33 34 36 37 38 40 44 45 49 52 54 56 57 60 62 65 66 66 67 67 68 69 69 67 66 65 65 65 64 65 66 66 66 67 67 68 67 67 67 66 67 66 66 66 66 67 66 67 67 68 68 69 69 69
13 13 15 15 21 12 10 9 8 11 15 15 14 14 16 19 17 16 17 19 13 14 15 13 13 11 27 33 27 26 28 32 34 33 36 37 38 41 42 44 46 48 52 56 58 60 61 62 63 64 65 66 66 66 67 67 67 66 65 65 65 64 65 66 66 67 67 67 66 66 66 67 68 68 67 67 67 67 67 67 67 67 67 68 68 69
14 13 14 16 16 17 12 9 13 14 15 15 16 17 17 14 17 20 16 18 17 14 13 13 15 20 26 23 26 28 31 32 35 37 37 38 41 41 40 42 43 47 50 52 54 56 58 60 61 62 62 62 63 63 64 64 64 65 65 65 64 64 64 63 64 65 66 66 67 67 67 67 67 66 67 67 67 67 67 67 67 67 67 67 67 67
19 12 11 15 15 15 13 15 16 15 14 13 13 11 18 17 16 19 15 17 16 20 25 25 18 25 22 29 29 34 35 36 36 36 39 39 38 41 39 41 42 45 47 50 52 54 56 58 60 61 60 59 60 61 62 62 62 63 64 65 65 64 64 64 64 64 64 67 66 67 67 67 67 67 67 67 66 66 66 66 66 66 67 67 67 68
12 13 12 15 15 14 13 15 16 14 12 13 14 12 13 17 20 16 22 24 23 28 25 34 27 28 24 29 32 33 33 35 37 37 39 38 38 39 39 41 43 44 45 47 50 52 54 56 58 58 59 59 58 60 60 59 60 60 61 65 65 64 64 64 65 65 65 66 66 66 66 66 66 67 67 67 67 67 67 67 67 67 67 68 68 68
17 19 16 13 14 15 16 18 17 15 17 16 12 16 15 13 11 23 28 21 27 30 22 35 24 22 25 27 29 33 35 35 37 37 38 39 40 42 41 40 42 43 45 46 47 49 52 53 56 56 56 56 57 57 58 58 59 59 59 59 61 65 66 65 66 66 66 66 66 66 66 66 65 65 65 66 66 66 67 67 67 67 67 67 68 67
22 23 20 18 15 14 15 17 17 15 14 13 16 15 16 14 13 23 19 22 22 18 25 28 24 21 21 24 29 32 33 34 35 36 37 40 40 40 41 41 42 43 44 45 46 48 48 50 52 52 53 52 54 54 55 57 57 58 58 58 58 58 59 64 66 66 66 65 65 65 65 66 66 66 65 65 64 65 65 65 66 66 66 66 66 66
21 20 20 19 17 16 17 18 17 15 14 13 14 15 14 22 17 20 23 19 20 20 21 22 29 21 21 28 29 31 32 34 35 35 36 37 39 41 42 42 43 43 44 44 45 45 47 48 49 51 52 51 53 54 53 54 55 55 56 56 57 57 58 58 59 60 61 62 63 64 64 64 64 64 64 64 64 64 63 63 63 63 65 67 67 67
22 23 22 22 19 19 19 17 20 19 18 18 18 15 16 19 25 31 26 21 21 19 20 17 17 32 28 27 32 32 34 35 34 34 34 35 37 38 39 40 42 44 45 43 45 46 46 46 45 44 48 45 47 49 53 54 54 54 54 54 54 55 56 58 59 59 60 61 61 62 62 62 60 62 62 63 64 64 63 63 63 63 63 65 66 65
26 35 22 25 21 20 20 19 19 19 19 17 17 16 16 18 18 18 29 19 21 22 18 18 17 29 33 27 29 32 34 35 34 33 35 36 38 39 41 43 44 45 45 45 45 44 44 48 48 45 46 43 45 49 50 53 54 54 54 53 52 53 53 56 57 56 59 61 61 61 61 61 62 62 60 62 62 63 63 64 64 64 64 62 66 65
26 28 27 26 22 20 20 22 19 18 17 16 18 19 16 17 24 17 19 17 16 21 25 27 27 35 29 26 27 31 33 32 32 35 36 38 40 43 44 46 46 46 46 47 46 45 43 44 44 41 43 44 46 45 45 50 53 53 54 53 53 52 50 52 54 55 56 58 60 60 60 61 62 60 61 61 61 61 60 60 62 63 62 62 62 62
31 34 28 26 24 22 20 20 21 20 19 18 17 19 20 22 21 20 20 21 18 16 16 20 22 33 35 29 31 32 31 32 34 35 38 40 41 43 44 45 46 47 45 45 45 43 44 47 46 44 46 47 48 49 48 49 49 51 53 52 54 53 53 52 52 53 55 57 57 58 60 59 59 59 59 60 60 60 59 60 60 61 61 60 61 61
42 33 25 23 24 24 22 23 23 20 21 21 20 19 20 22 20 21 22 32 26 24 22 21 22 33 34 34 32 32 33 35 37 39 40 40 40 41 42 43 44 44 45 44 44 47 47 46 47 44 44 42 44 46 45 45 41 47 48 49 50 51 51 51 51 53 53 57 57 58 59 58 58 59 58 58 58 58 59 59 60 59 60 59 61 60
27 33 23 26 25 25 24 22 22 22 22 22 22 22 20 19 19 20 21 37 28 25 23 30 24 31 39 36 34 33 34 35 37 38 41 40 42 42 42 42 43 44 43 41 43 43 42 41 38 37 35 35 35 35 47 43 42 42 47 46 46 51 51 51 51 51 49 53 55 57 59 59 58 58 58 57 58 58 58 59 59 59 57 58 57 56
28 32 27 23 24 24 24 22 21 24 24 25 23 21 20 19 20 23 22 27 26 27 23 23 22 33 33 34 32 33 35 36 38 39 40 40 41 41 41 42 43 42 42 41 41 43 44 39 36 37 37 32 33 31 32 38 39 40 41 46 51 49 48 50 51 50 50 53 53 52 54 56 57 58 58 57 57 57 58 58 56 56 57 54 54 55
36 32 30 28 25 25 25 24 23 24 25 24 24 22 20 20 18 21 27 23 22 25 24 20 30 31 31 31 32 34 36 37 38 39 38 38 40 42 43 43 42 42 41 41 43 43 42 41 41 38 38 35 34 35 32 31 33 34 40 43 43 44 48 50 52 48 48 52 52 50 53 54 54 56 58 58 58 58 57 57 56 54 53 55 53 53
35 30 29 28 27 24 23 22 22 25 24 27 24 23 21 21 21 24 25 25 27 26 19 25 32 34 31 31 31 34 36 38 39 39 39 40 41 41 41 41 44 39 40 40 41 40 40 40 39 43 43 42 34 33 32 29 31 31 35 35 36 41 46 50 47 44 45 48 48 49 51 52 53 54 53 56 57 55 57 56 57 55 57 54 53 53
34 29 30 31 29 24 24 24 24 25 24 26 25 26 27 21 25 30 30 24 29 26 25 28 36 35 33 32 33 34 38 38 37 38 39 40 40 40 39 37 36 37 38 36 38 38 39 38 38 43 41 39 38 37 33 29 30 33 33 33 34 40 42 41 45 44 44 46 48 48 49 50 50 51 53 51 51 53 53 54 54 54 55 54 52 53
36 29 31 26 26 24 23 23 23 20 23 24 23 22 24 24 26 25 25 26 28 30 26 25 25 26 30 33 32 36 39 38 39 40 41 39 38 36 34 35 33 32 32 33 34 35 36 36 37 39 40 42 35 33 31 31 29 27 29 34 37 40 42 41 44 42 43 45 47 48 45 45 48 46 48 48 50 51 52 51 53 53 52 50 50 51
32 27 33 28 27 27 26 24 21 18 19 22 22 22 21 24 24 24 26 30 30 25 20 19 22 24 22 24 33 40 41 39 39 39 37 37 34 35 32 30 29 27 28 30 32 34 35 36 36 37 37 37 37 36 34 33 30 29 30 33 34 36 38 35 42 42 42 40 41 42 43 44 46 46 45 47 48 51 47 46 50 50 49 51 52 52
36 29 30 30 26 25 20 21 21 17 17 17 19 19 19 24 29 26 27 26 26 25 23 22 21 18 19 29 37 40 40 39 39 37 35 34 32 33 30 27 27 28 28 29 31 33 34 34 37 37 37 35 34 34 31 30 30 30 31 31 32 34 37 41 40 39 40 41 42 40 39 41 41 42 44 45 43 45 46 48 49 48 49 51 51 52
33 29 27 27 23 23 23 21 19 16 16 14 19 18 15 17 17 16 13 14 16 23 19 18 16 35 31 39 38 39 40 39 37 34 34 32 32 29 28 28 28 30 30 33 34 34 34 35 35 38 37 32 33 31 29 29 29 29 32 34 38 40 41 39 37 38 38 40 40 40 43 40 40 40 41 42 42 44 46 47 46 46 47 49 53 53
32 30 25 28 23 22 21 20 22 19 15 12 22 14 10 14 10 13 13 13 18 20 17 17 30 39 39 38 38 39 39 37 36 35 35 35 34 32 28 27 29 32 35 34 34 34 35 36 36 36 36 37 34 30 32 34 32 37 41 36 37 40 40 37 38 40 39 39 39 39 40 39 38 39 39 41 42 43 43 45 46 52 50 49 50 49
31 29 24 26 22 20 22 25 18 19 17 23 22 17 11 9 7 5 5 3 7 8 9 37 34 35 36 37 37 37 36 34 35 33 35 33 34 33 31 29 31 34 35 36 36 36 37 37 37 38 38 33 33 37 33 28 31 37 36 37 38 38 39 40 39 40 40 40 39 39 39 38 38 39 40 40 40 42 41 42 47 48 50 49 49 48
26 26 22 21 23 19 16 15 17 15 23 22 20 18 22 16 19 17 18 9 6 9 12 38 32 35 35 36 36 35 36 36 37 38 38 35 35 33 32 33 34 36 36 36 36 37 36 32 36 38 42 39 32 29 30 35 39 36 35 37 37 39 39 39 38 38 39 37 38 37 37 37 38 40 39 41 43 43 41 43 47 46 47 47 48 48
29 25 20 19 23 16 14 12 11 24 25 24 27 25 20 21 22 22 15 15 10 18 18 28 31 36 34 36 37 36 37 36 36 37 36 35 35 35 36 35 37 37 36 37 35 34 36 35 35 40 41 38 35 34 41 40 39 39 38 37 37 37 38 38 37 36 38 38 37 39 39 40 39 40 41 41 42 42 43 45 46 47 48 47 47 46
25 22 23 21 20 15 11 10 13 17 20 24 29 27 25 25 23 27 22 14 21 17 23 27 32 36 35 36 38 39 40 33 29 29 35 35 36 34 34 35 34 35 34 33 33 32 34 39 36 36 34 39 40 42 41 40 38 37 38 37 37 36 38 37 36 36 37 38 39 40 39 41 41 41 43 44 44 46 47 48 48 50 50 49 49 48
23 27 25 19 16 15 16 14 15 17 21 24 26 26 29 23 27 31 17 9 19 21 26 29 34 36 36 37 39 38 30 23 25 29 34 36 37 35 33 33 31 34 34 31 30 30 32 41 39 36 39 43 41 40 40 39 40 36 36 36 36 37 37 38 36 39 39 41 41 41 42 43 43 44 44 43 44 47 47 48 48 49 50 49 46 45
25 23 22 21 21 16 16 14 15 17 16 23 23 27 22 28 27 22 7 8 23 27 29 32 37 37 38 38 38 34 29 22 33 35 37 36 36 37 37 36 36 33 31 30 28 32 34 39 38 37 38 38 40 42 38 39 38 41 39 38 39 39 38 39 40 40 41 42 42 42 42 43 44 45 45 44 44 46 46 47 47 46 47 46 43 42
24 24 22 21 18 17 20 16 17 17 26 35 29 27 25 31 22 10 10 22 31 31 29 37 39 38 38 39 37 33 32 36 38 38 38 37 36 36 36 36 34 32 31 33 35 39 29 27 29 29 36 33 39 38 37 36 38 38 38 42 41 41 41 42 42 42 41 41 41 40 40 42 43 45 45 44 45 45 46 46 46 46 44 44 44 43
23 23 22 23 18 17 17 15 16 17 25 32 30 22 23 25 14 10 33 41 38 32 33 39 39 39 40 39 36 35 38 38 39 37 36 37 37 36 33 31 29 28 29 32 34 34 34 25 32 35 35 36 36 39 38 38 39 38 40 41 41 43 42 42 40 41 39 40 39 40 41 42 44 45 45 44 44 44 44 44 43 43 43 43 42 42
23 23 21 20 19 17 21 17 16 16 32 34 29 23 25 21 22 39 41 40 38 37 38 39 39 40 41 39 36 37 38 37 38 37 37 37 35 33 32 30 32 31 31 31 32 26 27 31 32 31 37 35 39 36 35 38 41 40 42 41 43 42 41 40 40 39 40 40 39 41 40 42 43 43 43 43 43 42 42 43 42 43 43 43 41 40
27 23 21 21 21 14 14 17 18 18 32 32 28 23 24 27 41 43 41 40 41 41 41 40 41 40 39 38 35 36 37 37 37 37 36 35 34 33 32 33 32 30 29 27 26 29 32 35 35 36 36 35 36 35 36 41 39 41 41 42 42 42 42 40 39 39 38 40 38 38 38 37 39 40 41 41 42 41 42 42 42 41 41 41 41 41
28 24 25 20 24 20 16 18 21 29 32 31 33 31 34 40 42 41 41 40 39 37 39 37 38 37 36 37 37 37 36 36 35 34 34 33 33 33 33 32 32 32 31 32 31 35 34 31 36 34 35 36 40 39 37 39 40 41 42 43 42 39 39 40 39 40 38 38 38 39 37 38 39 40 40 41 40 40 40 41 41 40 41 41 41 41
29 28 39 26 31 36 35 35 36 33 32 31 37 38 37 37 36 38 37 35 34 34 34 34 36 36 36 36 34 34 33 34 34 34 32 32 31 31 33 32 31 32 31 30 32 32 31 31 33 34 33 34 36 39 41 41 40 42 43 42 42 39 38 38 39 39 38 37 38 38 36 38 39 40 41 41 40 41 40 40 41 41 41 44 41 40
29 32 27 17 33 30 30 34 33 35 38 38 36 36 37 36 35 35 34 31 32 32 31 35 36 36 35 34 33 34 33 33 33 32 32 30 30 31 31 32 34 33 33 32 33 35 32 30 30 32 35 38 41 40 40 42 40 42 41 40 39 39 39 37 39 39 38 38 36 38 39 40 40 40 40 41 40 40 40 40 40 41 43 42 39 37
22 30 25 25 29 21 30 32 34 36 37 37 36 35 34 33 32 31 32 34 34 35 34 36 36 35 34 34 34 33 32 32 31 31 29 29 30 30 30 30 31 32 34 36 38 37 35 35 34 35 37 38 41 41 41 40 41 40 40 39 39 39 39 41 39 37 34 36 37 38 39 39 42 41 39 39 39 38 39 40 40 39 39 38 37 36
23 29 23 26 25 21 29 31 31 34 34 34 34 33 34 33 32 33 33 34 34 33 33 34 35 34 33 32 33 32 31 30 30 29 29 31 31 32 31 31 32 34 35 34 38 39 35 37 37 39 38 39 40 42 42 41 40 40 42 41 39 40 40 41 39 38 36 36 36 40 40 40 39 39 38 38 39 39 40 39 39 39 39 39 41 38
22 20 21 21 21 21 20 30 34 31 30 30 32 32 33 33 33 33 34 33 33 33 33 33 32 32 31 31 31 30 30 29 30 31 32 32 32 33 33 32 33 33 35 37 38 37 37 39 39 39 39 39 41 42 41 41 40 39 39 38 37 39 39 39 38 36 35 38 39 39 39 39 38 38 37 38 38 38 38 39 39 38 39 39 41 37
22 27 23 20 20 21 31 33 35 35 33 33 33 33 34 33 33 32 31 32 31 32 32 32 31 31 31 31 30 29 28 29 30 32 32 32 32 33 34 34 33 34 34 36 35 36 38 38 38 40 40 41 41 41 41 40 39 39 38 37 37 36 35 32 37 37 38 39 39 39 39 38 37 38 37 37 37 38 34 33 39 36 37 37 39 37